Change the Weather History Date:

Saturday, July 21, 2012

  Actual Average Record
Temperature  
Mean Temperature 77 °F 70 °F  
Max Temperature 91 °F 88 °F 102 °F (1960)
Min Temperature 62 °F 52 °F 25 °F (1943)
Degree Days  
Heating Degree Days 0 1  
Month to date heating degree days 11 32  
Since 1 June heating degree days 202 192  
Since 1 July heating degree days 11 32  
Cooling Degree Days 12 6  
Month to date cooling degree days 161 92  
Year to date cooling degree days 191 135  
Since 1 June cooling degree days 191 129  
Growing Degree Days 24 (Base 50)    
Moisture  
Dew Point 50 °F    
Average Humidity 48    
Maximum Humidity 72    
Minimum Humidity 23    
Precipitation  
Precipitation 0.00 in 0.02 in 1.62 in (1987)
Month to date precipitation 0.84 0.71  
Year to date precipitation 10.05 8.56  
Snow  
Snow 0.00 in - - ()
Month to date snowfall 0.0  
Year to date snowfall 29.2  
Since 1 July snowfall 0.0  
Snow Depth 0.00 in    
Sea Level Pressure  
Sea Level Pressure 30.07 in    
Wind  
Wind Speed 7 mph (NW)    
Max Wind Speed 20 mph    
Max Gust Speed 25 mph    
Visibility 10 miles    
Events      
T = Trace of Precipitation, MM = Missing Value Source: NWS Daily Summary

Daily Weather History Graph

Daily Weather History Graph

Search for Another Location

Airport or City:

Trip Planner

Search our weather history database for the weather conditions in past years. The results will help you decide how hot, cold, wet, or windy it might be!

Date:

Astronomy

Jul. 21, 2012 Rise Set
Actual Time 6:03 AM MDT 9:21 PM MDT
Civil Twilight 5:26 AM MDT 9:58 PM MDT
Nautical Twilight 4:38 AM MDT 10:46 PM MDT
Astronomical Twilight 3:36 AM MDT 11:47 PM MDT
Moon 9:03 AM MDT (7/21) 10:17 PM MDT (7/21)
Length of Visible Light 16h 31m
Length of Day
15h 17m
Waxing Crescent, 7% of the Moon is Illuminated
Jul 21
Waxing Crescent
Jul 26
First Quarter
Aug 1
Full
Aug 9
Last Quarter
Aug 17
New

Hourly Weather History & Observations

Time (MDT) Temp. Dew Point Humidity Pressure Visibility Wind Dir Wind Speed Gust Speed Precip Events Conditions
12:53 AM 69.1 °F 53.1 °F 57% 30.10 in 10.0 mi NNW 6.9 mph - N/A   Overcast
1:53 AM 68.0 °F 51.1 °F 55% 30.10 in 10.0 mi NW 6.9 mph - N/A   Overcast
2:53 AM 64.9 °F 53.1 °F 65% 30.11 in 10.0 mi WNW 5.8 mph - N/A   Overcast
3:53 AM 62.6 °F 53.6 °F 72% 30.17 in 10.0 mi Calm Calm - N/A   Mostly Cloudy
4:53 AM 62.1 °F 53.1 °F 72% 30.11 in 10.0 mi WNW 4.6 mph - N/A   Overcast
5:53 AM 62.1 °F 53.1 °F 72% 30.12 in 10.0 mi West 4.6 mph - N/A   Overcast
6:53 AM 62.1 °F 52.0 °F 70% 30.14 in 10.0 mi NW 6.9 mph - N/A   Mostly Cloudy
7:53 AM 63.0 °F 52.0 °F 67% 30.14 in 10.0 mi North 4.6 mph - N/A   Scattered Clouds
8:53 AM 66.9 °F 52.0 °F 59% 30.14 in 10.0 mi WNW 4.6 mph - N/A   Clear
9:53 AM 69.1 °F 53.1 °F 57% 30.13 in 10.0 mi Variable 4.6 mph - N/A   Clear
10:53 AM 75.0 °F 46.0 °F 36% 30.10 in 10.0 mi Variable 4.6 mph - N/A   Clear
11:53 AM 75.9 °F 48.0 °F 37% 30.09 in 10.0 mi Variable 5.8 mph - N/A   Clear
12:53 PM 79.0 °F 48.9 °F 35% 30.07 in 10.0 mi WNW 6.9 mph - N/A   Clear
1:53 PM 82.9 °F 48.9 °F 31% 30.05 in 10.0 mi NW 12.7 mph 23.0 mph N/A   Clear
2:53 PM 82.9 °F 48.0 °F 29% 30.04 in 10.0 mi NW 8.1 mph 20.7 mph N/A   Clear
3:53 PM 84.0 °F 46.9 °F 27% 30.02 in 10.0 mi NNW 12.7 mph 16.1 mph N/A   Mostly Cloudy
4:53 PM 86.0 °F 45.0 °F 24% 30.00 in 10.0 mi NNW 13.8 mph 19.6 mph N/A   Scattered Clouds
5:53 PM 84.9 °F 48.9 °F 29% 29.99 in 10.0 mi NNE 15.0 mph 20.7 mph N/A   Clear
6:53 PM 84.0 °F 46.9 °F 27% 29.98 in 10.0 mi North 13.8 mph 21.9 mph N/A   Clear
7:53 PM 82.9 °F 45.0 °F 26% 29.98 in 10.0 mi North 13.8 mph - N/A   Clear
8:53 PM 78.1 °F 48.0 °F 35% 29.99 in 10.0 mi North 8.1 mph - N/A   Clear
9:53 PM 73.0 °F 48.0 °F 41% 30.02 in 10.0 mi WNW 11.5 mph - N/A   Clear
10:53 PM 71.1 °F 46.9 °F 42% 30.03 in 10.0 mi Calm Calm - N/A   Clear
11:53 PM 64.0 °F 48.9 °F 58% 30.05 in 10.0 mi North 5.8 mph - N/A   Clear